#timestamp,LO_Frequency,Hit,StdDev 
1508331615.8,286047006.5,Y
1508331635.7,286047001.4,P
1508331655.5,286047002.7,P
1508331675.3,286047000.5,N
1508331695.2,286046996.9,Y
1508331715.9,286046995.4,P
1508331735.7,286046995.4,N
1508331755.6,286046994.5,N
1508331775.4,286046994.4,N
1508331795.2,286046994.2,N
1508331815.1,286046994.0,N
1508331816.0,286046994.0,N
1508331835.8,286046996.4,N
1508331855.6,286046994.8,N
1508331875.5,286046991.9,Y
1508331895.3,286046999.6,P
1508331915.1,286046998.2,N
1508331935.9,286046999.3,N
1508331955.7,286046999.0,N
1508331975.5,286047000.4,N
1508331995.3,286046998.1,N
1508332015.2,286046995.3,Y
1508332035.0,286046996.6,P
1508332035.9,286046996.6,P
1508332055.7,286046997.0,P
1508332075.6,286046998.9,N
1508332095.4,286046997.5,N
1508332115.3,286046991.7,Y
1508332135.1,286046993.6,P
1508332136.0,286046993.6,P
1508332155.8,286046997.5,N
1508332175.6,286047001.2,N
1508332195.5,286047002.5,N
1508332215.3,286046997.9,N
1508332235.1,286046996.8,N
1508332255.9,286046997.9,N
1508332275.7,286046997.5,N
1508332295.5,286046997.9,N
1508332315.4,286046998.4,N
1508332335.2,286047000.7,N
1508332355.0,286046999.1,N
1508332355.9,286046999.1,N
1508332375.8,286046995.3,N
1508332395.6,286046997.8,N
1508332415.4,286046999.5,N
1508332435.3,286046997.6,N
1508332455.1,286046997.5,N
1508332456.0,286046997.5,N
1508332475.8,286046996.9,N
1508332495.7,286046997.6,N
1508332515.5,286046999.6,N
1508332535.3,286046995.2,N
1508332555.2,286046998.0,N
1508332575.9,286046993.1,Y
1508332595.7,286046993.3,P
1508332615.6,286046994.3,N
1508332635.4,286046996.2,N
1508332655.2,286046992.9,Y
1508332675.1,286046995.3,P
1508332676.0,286046995.3,P
1508332695.8,286046993.8,P
1508332715.6,286047000.4,N
1508332735.5,286046998.2,N
1508332755.3,286046995.2,N
1508332775.1,286046999.5,N
1508332795.9,286046998.3,N
1508332815.7,286046996.6,N
1508332835.5,286047000.0,N
1508332855.3,286047000.2,N
1508332875.2,286046999.4,N
1508332895.0,286047000.3,N
1508332895.9,286047000.3,N
1508332915.7,286047001.1,N
1508332935.6,286047007.0,N
1508332955.4,286047004.5,N
1508332975.2,286047004.0,N
1508332995.1,286047005.8,N
1508332996.0,286047005.8,N
1508333015.8,286047004.0,N
1508333035.6,286047004.4,N
1508333055.5,286047002.6,N
1508333075.3,286047001.4,N
1508333095.1,286047003.3,N
1508333115.9,286047004.1,N
1508333135.7,286047002.7,N
1508333155.5,286047000.3,N
1508333175.4,286047003.9,N
1508333195.2,286047001.3,N
1508333215.0,286047005.7,N
1508333215.9,286047005.7,N
1508333235.8,286047007.1,N
1508333255.6,286047007.5,N
1508333275.4,286047003.3,N
1508333295.2,286047006.9,N
1508333315.1,286047003.9,N
1508333316.0,286047003.9,N
1508333335.8,286047005.8,N
1508333355.6,286047005.7,N
1508333375.5,286047003.0,N
1508333395.3,286047001.6,N
1508333415.1,286047005.1,N
1508333435.9,286047004.7,N
1508333455.7,286047004.0,N
1508333475.5,286047002.4,N
1508333495.4,286047003.0,N
1508333515.2,286047001.4,N
1508333535.0,286047004.2,N
1508333535.9,286047004.2,N
1508333555.8,286047009.2,Y
1508333575.6,286046997.1,P
1508333595.4,286046993.7,N
1508333615.3,286046996.5,N
1508333635.1,286046998.8,N
1508333655.8,286047000.1,N
1508333675.7,286046999.2,N
1508333695.5,286046998.5,N
1508333715.3,286046992.0,N
1508333735.2,286046997.8,N
1508333755.9,286046996.1,N
1508333775.7,286046998.8,N
1508333795.6,286046997.3,N
1508333815.4,286047000.5,N
1508333835.2,286046999.8,N
1508333855.1,286047000.6,N
1508333856.0,286047000.6,N
1508333875.8,286046998.6,N
1508333895.6,286047001.2,N
1508333915.4,286047001.2,N
1508333935.3,286046998.8,N
1508333955.1,286047000.0,N
1508333975.8,286047001.9,N
1508333995.7,286046998.5,N
1508334015.5,286047002.8,N
1508334035.3,286047000.0,N
1508334055.2,286047000.3,N
1508334075.9,286047000.4,N
1508334095.7,286047000.9,N
1508334115.6,286047003.8,N
1508334135.4,286047003.0,N
1508334155.2,286047005.8,N
1508334175.1,286047004.2,N
1508334176.0,286047004.2,N
1508334195.8,286047005.9,N
1508334215.6,286047001.3,N
1508334235.5,286047002.0,N
1508334255.3,286047007.2,N
1508334275.1,286047007.6,N
1508334295.9,286047005.6,N
1508334315.7,286047001.0,N
1508334335.5,286046997.3,N
1508334355.3,286046999.2,N
1508334375.2,286046998.7,N
1508334395.0,286046999.1,N
1508334395.9,286046999.1,N
1508334415.7,286046998.7,N
1508334435.6,286046996.7,N
1508334455.4,286047002.7,N
1508334475.2,286047003.1,N
1508334495.1,286047000.2,N
1508334496.0,286047000.2,N
1508334515.8,286047001.6,N
1508334535.6,286047001.6,N
1508334555.5,286047001.3,N
1508334575.3,286047007.1,N
1508334595.1,286047006.5,N
1508334615.9,286047006.5,N
1508334635.7,286047007.1,N
1508334655.5,286047005.4,N
1508334675.4,286047006.7,N
1508334695.2,286047006.8,N
1508334715.0,286047006.6,N
1508334715.9,286047006.6,N
1508334735.8,286047006.0,N
1508334755.6,286047003.3,N
1508334775.4,286047004.4,N
1508334795.3,286047003.8,N
1508334815.1,286047004.4,N
1508334816.0,286047004.4,N
1508334835.8,286047007.1,N
1508334855.7,286047014.0,Y
1508334875.5,286047006.6,P
1508334895.3,286047010.7,P
1508334915.2,286047009.0,N
1508334935.9,286047006.5,N
1508334955.7,286047007.2,N
1508334975.5,286047006.9,N
1508334995.4,286047008.3,Y
1508335015.2,286046999.8,P
1508335035.0,286047002.1,N
1508335036.0,286047002.1,N
1508335055.8,286047002.5,N
1508335075.6,286046999.0,N
1508335095.4,286046999.2,N
1508335115.3,286046996.6,N
1508335135.1,286046996.5,N
1508335155.8,286046999.4,N
1508335175.7,286047000.7,N
1508335195.5,286046995.8,N
